Capitol Logistics 3256


KEYW
Key West International Airport
Key West, Florida, US
KMTH
The Florida Keys Marathon International Airport
Marathon, Florida, US

Activity Log

Date Flight Route Aircraft Duration
No Flights Yet

Route Details

Aircraft Information
Primary: Saab 340AF
Backup: Not Available
Route Data
Distance: 40nm
Sched. Duration: 0h 45m
Avg. Duration: 0h 00m (-45m)
Times Flown: 0
Recm'd Route: VPKOE
Planned Altitude: 3,500ft
Origin Wx: KEYW 261953Z 15008KT 10SM CLR 25/22 A3000 RMK AO2 SLP157 T02500217
Dest. Wx: KMTH 261953Z AUTO 15005KT 10SM BKN016 OVC023 25/22 A2999 RMK AO2 SLP156 T02500222
Notes:

Financial History
Total Freight: 0lbs
Average Load: 0lbs/flt
Fuel Used: 0lbs
Avg. Fuel Used: 0lbs/flt
Fuel Expense: $0
Avg. Fuel Expense: $0
Avg. Fuel Cost: $0/lbs
Total Gross Income: $0
Pilot Pay: $0
Total Expenses: $0
Total Revenue: $0
Average Revenue: $0